Hourly Data Report for October 21, 2016

All times are specified in Local Standard Time (LST). Add 1 hour to adjust for Daylight Saving Time where and when it is observed.

CHARLOTTETOWN A
PRINCE EDWARD ISLAND

46°17'21.000" N
63°07'09.000" W
48.50 m
8300301
71706
YYG

Download Data

Hourly Data (October 2016)
Hourly Data Report for October 21, 2016
Temp Definition
°C
Dew Point Temp Definition
°C
Rel Hum Definition
%
Wind Dir Definition
10's deg

Wind Spd Definition
km/h
Visibility Definition
km
Stn Press Definition
kPa
Hmdx Definition


Wind Chill Definition


Weather Definition


TIME
00:00 Legend Double Dagger 8.2 5.3 82 10 10 24.1 102.19     LegendNANA
01:00 Legend Double Dagger 8.2 5.5 83 11 8 24.1 102.17     LegendNANA
02:00 Legend Double Dagger 8.3 5.9 85 11 10 24.1 102.10     Cloudy
03:00 Legend Double Dagger 8.6 5.5 81 12 11 24.1 102.08     LegendNANA
04:00 Legend Double Dagger 8.8 5.2 78 13 12 24.1 102.05     LegendNANA
05:00 Legend Double Dagger 8.8 6.4 85 12 12 24.1 102.03     Cloudy
06:00 Legend Double Dagger 9.0 7.3 89 13 15 24.1 101.93     LegendNANA
07:00 Legend Double Dagger 9.5 7.8 89 13 20 24.1 101.84     LegendNANA
08:00 Legend Double Dagger 10.5 7.4 81 14 20 24.1 101.78     Mostly Cloudy
09:00 Legend Double Dagger 11.2 7.2 76 14 30 24.1 101.69     LegendNANA
10:00 Legend Double Dagger 12.2 7.5 73 14 36 24.1 101.58     LegendNANA
11:00 Legend Double Dagger 12.1 7.8 75 15 30 24.1 101.43     Cloudy
12:00 Legend Double Dagger 10.8 9.6 92 14 27 19.3 101.35     Rain
13:00 Legend Double Dagger 11.0 9.6 91 14 27 24.1 101.27     Rain Showers
14:00 Legend Double Dagger 11.2 9.6 90 15 25 24.1 101.20     Cloudy
15:00 Legend Double Dagger 12.4 10.3 87 16 30 24.1 101.11     LegendNANA
16:00 Legend Double Dagger 12.6 10.5 87 16 30 24.1 101.07     LegendNANA
17:00 Legend Double Dagger 12.8 10.7 87 16 22 24.1 101.04     Cloudy
18:00 Legend Double Dagger 12.9 11.2 89 16 21 24.1 100.98     LegendNANA
19:00 Legend Double Dagger 13.2 11.8 91 14 14 24.1 100.93     LegendNANA
20:00 Legend Double Dagger 13.6 12.3 92 14 17 24.1 100.83     Cloudy
21:00 Legend Double Dagger 14.2 13.3 94 14 20 16.1 100.79     LegendNANA
22:00 Legend Double Dagger 14.4 13.6 95 15 20 12.9 100.70     LegendNANA
23:00 Legend Double Dagger 14.1 13.5 96 13 19 0.8 100.57     Fog

Notes on Data Quality.

Legend

  • E = Estimated
  • M = Missing
  • NA = Not Available
  • ‡ = Partner data that is not subject to review by the National Climate Archives
Date modified: